Temperature
15 15 15 15 15 15 15 15 16 16 16 16 16 16 16 16 16 16 16 16 16 16 16 16 16 16 17 17 17 17 17 17 17 17 17 17 17 17 17 17 17 17 18
15 15 15 15 15 15 15 15 15 15 16 16 16 16 16 16 16 16 16 16 16 16 16 16 16 16 16 17 17 17 17 17 17 17 17 17 17 17 17 17 17 17 17
15 15 15 15 15 15 15 15 15 15 16 16 16 16 16 16 16 16 16 16 16 16 16 16 16 16 16 16 16 17 17 17 17 17 17 17 17 17 17 17 17 17 17
15 15 15 15 15 15 15 15 15 15 16 16 16 16 16 15 16 16 16 16 16 16 16 16 16 16 16 16 16 16 16 17 17 16 17 17 17 17 17 17 17 17 17
15 15 15 15 15 15 15 15 15 16 16 16 16 16 15 15 15 15 15 15 15 15 15 15 15 16 16 16 16 16 16 16 16 16 16 16 16 16 17 17 17 17 17
15 15 15 15 15 15 15 15 15 15 16 16 16 15 15 15 15 15 15 15 15 15 15 15 15 15 15 15 16 16 16 16 16 16 16 16 16 16 16 16 17 17 17
15 15 15 15 15 15 15 15 15 15 16 16 16 15 15 15 15 15 15 15 15 15 15 15 15 15 15 15 15 15 15 15 15 16 16 16 16 16 16 16 16 16 16
15 15 15 15 15 15 15 15 15 15 15 15 15 15 15 15 15 15 15 15 15 15 15 15 15 15 15 15 15 15 15 15 15 15 16 16 16 16 16 16 16 16 16
15 15 15 15 15 15 15 15 15 15 15 15 15 15 15 15 15 15 15 15 15 15 15 15 15 15 15 15 15 15 15 15 15 15 15 15 16 16 16 16 16 16 16
15 15 15 15 14 14 15 15 15 15 15 15 15 15 15 15 15 14 14 15 14 14 14 14 15 15 15 15 15 15 15 15 15 15 15 15 15 16 16 16 16 16 16
15 15 15 15 14 14 14 15 14 14 15 15 15 15 15 15 15 14 14 14 14 14 14 14 14 14 14 14 14 14 15 15 15 15 15 15 15 15 16 16 16 16 16
15 15 15 15 14 14 14 14 14 14 14 14 14 14 14 14 14 14 14 14 14 14 14 14 14 14 14 14 14 14 14 14 15 15 15 15 15 15 15 15 15 15 15
15 15 15 15 14 14 14 14 14 14 14 14 14 14 14 14 14 14 14 14 14 14 14 14 14 14 14 14 14 14 14 14 14 14 15 15 15 15 15 15 15 15 15
15 15 14 14 14 14 14 14 14 14 14 14 14 14 14 14 14 14 14 14 14 14 14 14 14 14 14 13 14 14 14 14 14 14 14 14 14 14 15 15 15 15 15
15 14 14 14 14 14 14 14 14 14 14 14 14 14 14 14 14 14 14 14 14 13 13 13 13 13 13 13 13 13 13 14 14 14 14 14 14 14 14 14 14 14 14
15 15 14 14 14 14 14 14 14 14 14 13 13 13 13 13 13 13 13 13 13 13 13 13 13 13 13 13 13 13 13 13 13 13 13 13 13 14 14 14 14 14 14
15 14 14 14 14 14 14 14 13 13 13 13 13 13 13 13 13 13 13 13 13 13 13 13 13 13 13 13 13 13 13 13 13 13 13 13 13 13 13 13 13 13 14
14 14 14 14 14 14 13 13 13 13 13 13 13 13 13 13 13 13 13 13 13 13 12 12 12 13 13 13 13 13 13 13 13 13 13 13 13 13 13 13 13 13 13
14 14 14 14 14 13 13 13 13 13 13 13 13 13 13 13 13 12 12 12 12 12 12 12 12 12 12 12 12 12 12 12 12 13 13 13 13 13 13 13 13 13 13
14 14 14 14 13 13 13 13 13 13 13 13 13 12 12 12 12 12 12 12 12 12 12 12 12 12 12 12 12 12 12 12 12 12 12 12 12 12 12 12 12 12 12
14 14 14 13 13 13 13 13 13 13 13 13 12 12 12 12 12 12 12 12 11 11 11 11 11 11 11 11 11 11 11 11 12 12 12 12 12 12 12 12 12 12 12
14 13 13 13 13 13 13 13 12 12 12 12 12 12 12 12 12 11 11 11 11 11 11 11 11 10 10 10 10 10 10 10 11 11 11 11 11 11 11 12 11 11 11
13 13 13 13 13 13 12 12 12 12 12 12 12 12 11 11 11 11 11 11 11 11 10 10 10 10 10 10 10 10 10 10 10 10 10 10 10 11 11 11 11 11 11
13 13 13 12 12 12 12 12 12 12 11 11 11 11 11 11 11 11 11 11 11 10 10 10 10 9 9 9 9 9 9 9 9 9 9 9 10 10 10 10 10 10 10
13 13 12 12 12 12 11 11 11 11 11 11 11 11 10 10 10 10 10 10 10 10 10 9 9 9 9 9 9 9 9 9 9 9 9 8 8 9 9 10 10 10 10
13 12 12 12 12 11 11 11 11 11 11 11 10 10 10 10 10 10 10 10 10 9 9 9 9 9 9 8 8 8 8 8 8 8 8 7 7 7 8 8 9 9 9
Wind_Speed
2 3 3 4 4 4 3 3 3 4 4 4 4 3 2 2 2 2 2 2 3 3 4 4 4 4 4 3 3 2 2 3 4 5 5 5 5 5 5 5 5 5 6
5 3 3 4 5 5 4 4 3 3 3 3 4 3 2 2 2 2 2 1 2 2 3 3 4 4 4 3 3 3 3 4 4 5 5 5 5 4 4 4 4 4 5
7 5 3 3 4 6 7 5 5 4 4 4 5 4 3 2 2 3 3 2 2 1 2 3 3 3 3 4 4 4 4 4 4 5 5 4 4 3 3 3 3 4 5
8 6 4 3 5 7 6 3 3 3 4 4 4 4 3 3 3 3 4 4 3 2 2 3 3 3 3 3 3 4 4 5 5 5 5 4 3 3 2 2 2 4 5
9 7 4 4 6 5 4 3 4 3 3 4 3 4 4 4 3 4 4 4 4 3 3 3 3 3 4 4 3 3 4 4 5 5 4 4 3 2 2 1 1 3 4
9 7 5 5 6 4 4 4 4 4 3 2 3 4 4 4 4 3 3 4 4 5 4 5 4 4 5 5 4 4 4 3 4 4 3 3 2 1 1 1 0 1 3
7 7 4 4 4 4 4 4 3 5 4 3 3 4 5 5 5 4 4 3 4 5 5 5 4 4 4 5 5 4 4 4 4 3 3 2 1 0 0 1 1 2 3
7 5 4 3 3 4 5 5 4 3 4 4 3 3 4 5 4 5 4 3 3 4 5 5 5 4 4 4 5 4 3 3 3 3 3 2 2 1 1 1 1 2 3
7 6 5 4 4 3 3 3 3 3 3 4 3 3 3 0 2 4 4 4 4 3 3 3 5 5 4 3 3 3 3 3 3 3 3 2 2 2 2 2 2 3 3
6 6 6 6 4 3 3 3 3 2 3 3 3 2 2 3 2 2 4 4 4 3 3 2 3 4 4 3 3 3 3 3 3 3 3 3 3 3 3 3 3 3 4
6 6 6 6 4 4 4 4 4 4 3 2 2 2 2 3 2 2 1 3 3 3 3 2 2 2 3 3 2 2 2 4 4 4 4 4 4 3 3 3 3 3 3
3 5 6 6 5 4 4 4 4 5 4 3 3 2 2 2 1 2 1 1 2 3 3 2 2 2 2 2 2 3 3 4 5 5 5 5 4 4 4 4 4 4 3
2 2 3 4 3 4 4 4 5 5 4 4 4 3 2 2 1 1 2 0 1 2 3 3 3 3 3 2 2 3 4 5 5 6 6 5 5 5 5 5 5 5 5
1 1 3 4 4 5 5 5 4 4 4 4 5 4 3 3 2 2 2 2 2 3 3 3 3 4 4 3 3 3 4 5 6 6 6 6 6 5 5 6 6 6 6
1 3 4 3 4 5 5 5 4 4 4 4 4 4 3 3 3 3 2 2 2 1 2 3 3 4 6 4 5 4 4 6 6 7 7 7 7 7 6 6 6 7 7
2 3 4 4 4 4 4 4 3 3 5 4 3 4 4 3 4 3 3 2 2 2 1 2 2 4 5 5 7 6 6 7 8 7 8 8 8 7 7 7 7 8 7
3 3 3 3 3 4 3 4 4 4 5 5 4 4 3 3 3 3 3 3 2 2 0 3 2 3 3 4 6 7 7 7 8 9 8 9 8 8 8 8 8 8 7
3 3 3 3 3 4 4 4 4 4 4 4 4 4 3 3 4 3 3 3 2 1 1 1 3 3 3 4 4 4 6 7 8 9 9 9 9 9 9 9 10 9 8
3 3 4 4 3 3 3 3 3 3 3 3 2 3 2 2 3 2 3 3 2 2 1 1 2 2 2 4 4 4 5 5 8 8 9 9 10 10 10 10 10 10 9
3 3 3 3 2 3 3 3 3 3 3 3 3 3 2 2 1 2 2 2 2 3 2 2 2 3 3 3 3 3 5 4 5 6 7 9 10 11 10 11 11 11 10
3 3 3 3 3 3 3 3 3 4 3 4 4 4 4 4 5 4 3 2 2 2 2 2 2 3 3 4 4 3 4 5 4 3 3 5 6 6 8 10 10 11 11
3 3 3 3 4 3 5 6 5 4 3 3 3 4 4 5 6 7 7 6 4 2 1 1 2 2 4 4 3 4 3 4 4 3 3 4 3 4 6 8 10 11 12
3 3 3 3 3 3 5 7 7 4 3 3 3 3 4 6 6 4 6 8 7 7 4 1 2 3 4 4 3 4 4 3 5 5 3 5 4 4 6 9 11 11 11
2 2 1 2 2 2 4 6 6 4 4 3 2 2 2 4 5 4 4 5 5 5 5 3 2 4 4 4 3 3 4 4 5 4 2 4 4 5 6 8 11 11 11
2 1 1 2 2 2 4 5 5 3 3 3 3 3 3 3 7 8 5 4 5 6 8 8 7 7 8 8 5 2 3 3 5 4 2 2 4 5 5 5 8 11 12
2 2 2 1 1 0 2 4 4 3 2 2 3 3 5 6 8 8 4 3 5 6 6 7 7 7 7 7 7 2 1 2 3 4 3 2 3 4 5 4 4 8 9
Wind_Direction
59 41 26 23 14 13 18 18 19 25 19 24 42 66 77 98 103 118 131 128 120 120 116 107 100 98 103 102 91 80 132 146 146 151 152 154 155 158 161 170 172 176 180
67 51 34 25 20 24 35 43 40 37 20 30 30 45 83 101 97 94 95 95 98 107 115 107 100 96 100 106 93 93 124 131 145 152 147 144 144 143 151 164 173 175 175
66 64 47 29 20 28 35 39 38 37 31 33 28 28 54 65 78 74 81 79 43 58 111 109 104 97 92 96 87 90 114 124 132 143 136 132 131 133 135 153 176 186 182
63 63 51 30 27 36 38 38 36 34 26 26 24 20 30 45 60 75 73 69 62 51 71 91 89 81 75 81 87 82 93 110 112 121 126 127 126 122 119 134 185 193 191
62 62 49 33 38 39 30 33 39 40 32 21 24 25 23 29 32 66 65 60 59 65 66 58 62 62 58 58 76 81 78 87 90 92 103 114 120 117 115 122 167 193 191
60 62 53 39 43 42 30 31 34 32 35 19 38 34 20 17 24 38 50 60 54 58 63 60 55 54 57 57 66 77 73 72 75 75 74 82 94 107 123 129 143 204 201
58 63 56 41 41 46 35 30 34 34 23 19 49 21 3 15 26 23 29 52 51 54 61 60 58 60 52 52 54 69 72 69 62 61 64 56 43 5 313 200 207 219 218
49 56 56 46 44 45 36 34 41 41 22 29 78 70 18 360 358 12 14 36 41 47 51 54 60 67 63 57 43 47 61 65 55 43 38 30 20 359 304 272 246 242 237
45 48 51 50 44 50 42 33 47 65 41 17 51 108 109 249 323 344 4 16 16 28 30 49 60 66 67 61 43 31 35 41 29 17 1 347 356 356 335 305 272 270 261
43 49 51 55 50 45 38 29 54 65 77 38 14 40 119 156 134 356 344 356 8 16 7 27 49 55 57 51 25 14 22 18 0 350 346 340 332 333 332 317 305 288 264
33 49 57 58 53 45 41 44 49 56 66 75 45 29 45 50 71 117 359 341 354 345 346 349 25 37 41 39 22 12 11 359 351 347 341 335 329 328 325 320 312 307 279
14 35 55 56 55 51 49 51 55 59 54 60 55 54 70 68 48 97 121 325 331 322 340 348 358 350 358 12 7 11 1 348 344 337 333 331 326 321 314 307 305 306 298
22 16 47 50 48 48 54 57 56 51 50 56 55 51 51 51 83 124 116 62 359 327 337 341 336 341 331 336 333 346 346 343 340 333 323 318 320 322 320 311 302 296 292
155 54 62 57 53 53 56 59 55 49 55 55 55 55 49 35 46 79 121 114 41 356 352 323 322 335 330 318 304 318 328 330 332 336 334 329 327 325 324 318 310 299 289
97 75 72 66 54 51 55 61 55 46 56 52 48 47 43 24 33 42 63 97 124 47 331 316 324 328 334 331 323 315 319 324 326 330 335 336 333 329 323 322 314 303 292
78 81 73 65 55 47 52 59 51 40 49 37 40 47 35 23 29 33 41 42 82 138 266 301 297 306 333 346 341 329 318 322 320 318 320 324 327 323 319 318 319 316 299
90 91 87 75 62 48 46 55 49 48 50 37 36 48 30 29 37 27 33 39 46 89 126 302 306 322 347 346 348 343 332 324 320 321 317 319 321 318 316 316 314 320 309
93 92 85 78 65 55 53 60 55 51 54 42 30 38 19 34 35 25 31 27 22 40 99 324 318 332 336 336 334 337 344 340 330 329 330 325 321 319 317 316 316 318 316
90 79 77 76 68 62 60 62 72 63 54 45 38 41 13 38 23 14 23 18 6 22 41 22 317 319 322 338 341 335 337 336 335 330 329 329 324 317 313 310 311 312 310
94 78 70 73 71 66 64 60 69 64 48 37 38 43 35 48 24 12 21 10 17 25 19 11 336 326 318 320 341 333 332 328 323 328 334 332 330 324 316 311 305 302 301
91 86 76 59 52 64 66 74 67 69 55 38 30 29 35 44 40 34 35 12 33 29 12 5 340 337 329 334 328 314 318 316 311 314 323 325 329 329 324 318 308 301 297
85 81 76 74 63 57 65 72 77 63 56 51 33 19 25 31 22 21 26 26 27 17 345 337 317 312 299 299 307 319 319 333 316 311 319 309 324 315 320 321 315 311 305
94 84 76 84 74 53 63 67 69 72 61 53 44 31 26 16 15 10 9 12 10 6 352 278 274 281 283 284 301 311 305 299 282 290 310 298 307 306 311 317 318 318 318
113 107 95 101 89 50 62 65 66 66 58 41 36 47 36 3 4 7 8 3 350 339 330 327 269 271 280 278 260 271 279 297 292 292 294 285 301 302 307 310 315 321 325
119 118 119 119 103 29 46 59 65 65 52 27 16 22 22 4 356 6 14 354 341 331 337 338 334 330 328 333 336 346 340 337 314 301 302 284 291 302 297 294 311 324 326
141 124 94 104 122 66 25 53 68 78 56 14 355 350 351 352 348 355 1 347 332 315 322 332 338 338 339 340 343 339 284 303 302 297 299 299 292 315 306 293 304 317 319
Height
1551 1550 1550 1550 1549 1548 1547 1547 1546 1545 1545 1544 1544 1543 1543 1543 1543 1542 1542 1541 1541 1541 1540 1540 1540 1539 1539 1539 1538 1537 1536 1538 1539 1541 1542 1543 1544 1545 1546 1546 1546 1546 1546
1552 1551 1551 1550 1549 1549 1548 1547 1547 1546 1545 1545 1544 1544 1544 1544 1544 1543 1543 1543 1542 1542 1541 1541 1541 1540 1540 1539 1538 1537 1536 1537 1539 1540 1542 1543 1544 1545 1545 1546 1546 1546 1546
1553 1552 1551 1551 1550 1549 1549 1548 1547 1547 1546 1545 1545 1545 1545 1545 1545 1544 1544 1544 1543 1543 1543 1542 1541 1541 1541 1540 1539 1538 1538 1538 1539 1540 1542 1543 1544 1545 1545 1546 1546 1546 1546
1554 1553 1552 1551 1551 1550 1549 1549 1548 1547 1547 1546 1546 1546 1546 1546 1546 1545 1545 1544 1544 1544 1543 1543 1542 1542 1541 1541 1540 1540 1539 1540 1540 1541 1542 1543 1544 1544 1545 1545 1545 1546 1546
1554 1554 1553 1552 1552 1551 1550 1549 1549 1548 1548 1547 1547 1547 1547 1547 1547 1546 1546 1546 1545 1545 1544 1544 1543 1543 1543 1542 1541 1541 1541 1541 1541 1541 1542 1543 1544 1544 1545 1545 1545 1546 1546
1555 1554 1554 1553 1552 1552 1551 1550 1550 1549 1549 1548 1548 1548 1548 1548 1548 1547 1547 1547 1546 1546 1545 1545 1544 1544 1544 1543 1542 1542 1542 1542 1542 1542 1543 1543 1543 1544 1544 1545 1544 1545 1546
1556 1556 1555 1554 1553 1552 1552 1551 1551 1550 1550 1549 1549 1549 1549 1549 1549 1548 1548 1548 1547 1547 1546 1546 1545 1545 1544 1544 1543 1543 1543 1543 1543 1543 1543 1543 1544 1544 1544 1544 1544 1544 1545
1558 1557 1556 1555 1554 1553 1553 1552 1552 1551 1551 1550 1550 1549 1550 1551 1550 1549 1549 1549 1548 1548 1547 1547 1546 1546 1545 1545 1544 1544 1544 1544 1543 1543 1543 1543 1543 1543 1543 1543 1543 1543 1543
1559 1558 1557 1556 1555 1554 1554 1553 1553 1552 1552 1551 1551 1551 1550 1550 1550 1551 1550 1549 1549 1549 1548 1547 1547 1546 1545 1545 1545 1544 1544 1544 1543 1543 1543 1543 1543 1543 1543 1542 1542 1542 1541
1560 1559 1558 1557 1556 1555 1555 1554 1554 1553 1553 1552 1552 1551 1551 1551 1551 1551 1551 1550 1550 1549 1548 1548 1547 1547 1546 1545 1545 1544 1544 1544 1543 1542 1542 1541 1541 1541 1541 1541 1540 1540 1539
1561 1560 1559 1558 1557 1557 1556 1555 1555 1554 1554 1553 1553 1552 1552 1551 1551 1551 1550 1550 1550 1550 1549 1548 1548 1547 1546 1545 1545 1544 1543 1543 1542 1541 1540 1539 1539 1539 1539 1539 1539 1538 1538
1562 1561 1560 1559 1559 1558 1557 1556 1556 1555 1555 1554 1554 1553 1552 1552 1551 1551 1551 1550 1550 1550 1550 1549 1548 1547 1546 1545 1544 1544 1543 1542 1541 1539 1538 1537 1536 1536 1537 1537 1537 1536 1536
1562 1561 1561 1560 1559 1559 1558 1557 1557 1556 1556 1555 1555 1554 1553 1553 1552 1552 1551 1550 1550 1550 1550 1549 1548 1547 1546 1545 1544 1543 1542 1541 1540 1538 1536 1535 1534 1534 1534 1535 1535 1534 1534
1562 1562 1561 1561 1560 1559 1559 1559 1558 1557 1557 1556 1556 1555 1554 1553 1553 1552 1552 1551 1550 1550 1549 1549 1548 1547 1546 1545 1544 1543 1542 1540 1539 1537 1535 1533 1533 1532 1532 1532 1532 1532 1531
1563 1563 1562 1561 1561 1560 1560 1559 1559 1558 1558 1557 1556 1556 1555 1554 1553 1553 1552 1551 1551 1549 1549 1548 1548 1547 1546 1545 1543 1542 1541 1540 1538 1536 1534 1533 1532 1531 1531 1530 1529 1528 1526
1563 1563 1563 1562 1561 1561 1561 1560 1560 1559 1559 1558 1557 1556 1555 1555 1554 1553 1552 1551 1551 1550 1549 1548 1547 1546 1545 1544 1542 1541 1540 1539 1537 1536 1534 1533 1531 1530 1529 1528 1526 1523 1521
1564 1563 1563 1563 1562 1562 1561 1561 1560 1560 1559 1558 1558 1557 1556 1555 1554 1553 1552 1551 1550 1550 1548 1547 1547 1545 1544 1542 1541 1540 1538 1537 1535 1534 1533 1532 1530 1529 1527 1525 1523 1520 1518
1564 1564 1563 1563 1562 1562 1561 1561 1560 1560 1559 1558 1558 1557 1556 1555 1554 1553 1552 1551 1550 1549 1548 1546 1545 1544 1543 1541 1540 1538 1537 1535 1534 1532 1531 1530 1528 1527 1525 1523 1521 1518 1517
1564 1563 1563 1563 1562 1562 1561 1561 1560 1559 1559 1558 1557 1556 1556 1555 1553 1553 1552 1550 1549 1548 1547 1545 1543 1542 1541 1539 1538 1536 1535 1533 1532 1530 1528 1527 1526 1524 1523 1521 1520 1517 1515
1563 1563 1563 1563 1562 1562 1561 1561 1560 1559 1558 1557 1557 1556 1555 1554 1553 1552 1551 1549 1548 1547 1545 1544 1542 1540 1539 1537 1535 1533 1532 1530 1529 1527 1526 1524 1523 1522 1520 1519 1517 1516 1514
1563 1563 1563 1562 1562 1561 1561 1560 1559 1559 1558 1557 1556 1555 1554 1553 1552 1551 1549 1548 1547 1545 1543 1542 1540 1538 1536 1534 1533 1531 1529 1527 1526 1524 1522 1521 1520 1518 1517 1516 1514 1513 1512
1562 1562 1562 1562 1561 1561 1560 1559 1559 1558 1557 1556 1555 1554 1553 1552 1551 1549 1548 1546 1545 1543 1541 1540 1538 1536 1534 1533 1531 1529 1527 1524 1522 1522 1519 1517 1516 1514 1513 1512 1511 1509 1508
1562 1562 1561 1561 1561 1560 1559 1559 1558 1557 1556 1555 1554 1553 1552 1550 1549 1548 1546 1545 1543 1541 1540 1538 1536 1534 1532 1530 1528 1526 1524 1522 1520 1518 1516 1513 1512 1510 1509 1508 1506 1505 1503
1561 1561 1560 1560 1560 1559 1559 1558 1557 1556 1555 1554 1553 1551 1550 1549 1547 1546 1544 1542 1540 1539 1537 1536 1534 1532 1530 1528 1526 1524 1522 1519 1517 1515 1513 1510 1508 1506 1504 1503 1502 1500 1499
1559 1559 1559 1559 1559 1558 1558 1557 1556 1555 1554 1552 1551 1550 1548 1547 1545 1543 1541 1539 1538 1536 1535 1533 1531 1529 1528 1526 1523 1521 1518 1515 1512 1511 1510 1507 1503 1501 1499 1498 1497 1495 1494
1558 1558 1558 1558 1557 1557 1556 1555 1555 1553 1552 1551 1550 1548 1546 1544 1543 1540 1539 1537 1535 1533 1531 1530 1528 1526 1524 1522 1520 1518 1515 1513 1510 1507 1505 1503 1500 1498 1494 1492 1491 1490 1488